GW5676 Weather Reports


Display with metric or nautical units.
time (UTC)temp
F
wind
direction
speed
MPH
gust
MPH
rain 1hr
in
rain 24hr
in
rain mn
in
humidity
%
barometer
mb
20260507151958 57 0 5.0 18.0 0.00 0.03 0.02 68 1011.4
20260507151453 57 48 7.0 18.0 0.00 0.03 0.02 66 1011.5
20260507150953 57 56 9.0 13.0 0.00 0.03 0.02 67 1011.5
20260507150453 57 34 7.0 12.0 0.00 0.03 0.02 67 1011.8
20260507145952 57 25 7.0 12.0 0.00 0.03 0.02 67 1011.7
20260507145453 57 58 7.0 14.0 0.00 0.03 0.02 67 1011.4
20260507144952 57 30 6.0 14.0 0.00 0.04 0.02 68 1011.3
20260507144735 57 61 8.0 14.0 0.00 0.04 0.02 68 1011.0
20260507143931 57 41 9.0 14.0 0.00 0.06 0.02 68 1011.2
20260507143431 57 31 6.0 14.0 0.00 0.06 0.02 68 1011.4
20260507142931 57 48 7.0 14.0 0.00 0.06 0.02 69 1011.4
20260507142430 57 73 6.0 15.0 0.00 0.08 0.02 69 1011.3
20260507142202 0 10 15.0 15.0 0.00 0.08 0.02 1011.5
20260507141432 58 49 6.0 5.0 0.00 0.08 0.02 70 1011.4
20260507140931 58 49 6.0 9.0 0.00 0.08 0.02 70 1011.6
20260507140431 58 61 6.0 12.0 0.00 0.08 0.02 70 1011.6
20260507135930 58 23 6.0 14.0 0.00 0.08 0.02 69 1011.7
20260507135431 58 68 8.0 14.0 0.00 0.09 0.02 69 1011.5
20260507135159 58 31 9.0 14.0 0.00 0.09 0.02 69 1011.6
20260507134430 58 32 9.0 14.0 0.00 0.09 0.02 69 1011.7
20260507133930 58 30 8.0 17.0 0.00 0.09 0.02 69 1011.6
20260507133430 58 58 9.0 17.0 0.00 0.09 0.02 69 1011.3
20260507132929 58 35 9.0 14.0 0.00 0.09 0.02 70 1011.3
20260507132429 58 13 8.0 14.0 0.00 0.09 0.02 73 1011.4
20260507131925 58 44 9.0 13.0 0.00 0.09 0.02 75 1011.0
20260507131423 58 1 6.0 15.0 0.00 0.09 0.02 77 1011.2
20260507130924 58 41 9.0 15.0 0.00 0.09 0.02 78 1011.5
20260507130423 58 28 6.0 14.0 0.00 0.09 0.02 78 1011.1
20260507125924 58 37 8.0 14.0 0.00 0.09 0.02 78 1011.0
20260507125423 58 30 6.0 11.0 0.00 0.09 0.02 78 1011.3
20260507125207 58 52 4.0 11.0 0.00 0.09 0.02 78 1011.3
20260507124423 58 35 5.0 11.0 0.00 0.09 0.02 78 1011.2
20260507123922 58 51 8.0 11.0 0.00 0.09 0.02 78 1011.3
20260507123656 58 27 7.0 11.0 0.00 0.09 0.02 78 1011.3
20260507122920 58 327 6.0 10.0 0.00 0.09 0.02 79 1011.2
20260507122421 58 24 6.0 10.0 0.00 0.09 0.02 78 1011.0
20260507121911 58 54 6.0 10.0 0.00 0.09 0.02 78 1010.9
20260507121409 58 61 5.0 11.0 0.00 0.09 0.02 78 1011.0
20260507121156 57 35 6.0 11.0 0.00 0.09 0.02 78 1010.9
20260507120635 57 58 6.0 11.0 0.00 0.09 0.02 77 1010.8
20260507115910 57 353 6.0 12.0 0.00 0.09 0.02 77 1011.2
20260507115641 57 27 6.0 12.0 0.00 0.09 0.02 77 1011.2
20260507114910 57 21 6.0 10.0 0.00 0.09 0.02 78 1011.2
20260507113902 57 17 6.0 10.0 0.00 0.09 0.02 78 1011.3
20260507113403 57 32 5.0 10.0 0.00 0.09 0.02 79 1010.9
20260507112903 57 21 4.0 9.0 0.00 0.09 0.02 80 1010.9
20260507112403 0 4 6.0 6.0 0.00 0.09 0.02 1010.9
20260507111904 0 0.0 0.0 0.00 0.09 0.02 1010.6
20260507111354 57 23 4.0 7.0 0.00 0.09 0.02 80 1010.5
20260507110832 57 23 4.0 7.0 0.00 0.09 0.02 80 1010.9
20260507110559 57 20 4.0 7.0 0.00 0.09 0.02 81 1010.9
20260507105830 57 23 6.0 6.0 0.00 0.09 0.02 81 1010.8
20260507105330 57 32 3.0 5.0 0.00 0.09 0.02 81 1010.6
20260507104830 0 0.0 0.0 0.00 0.09 0.02 1010.5
20260507104325 57 10 5.0 9.0 0.00 0.09 0.02 81 1010.4
20260507103810 57 10 5.0 10.0 0.01 0.09 0.02 81 1010.4
20260507103302 57 16 5.0 10.0 0.01 0.09 0.02 82 1010.2
20260507102803 57 14 5.0 9.0 0.01 0.09 0.02 82 1010.0
20260507102301 57 13 4.0 7.0 0.01 0.09 0.02 82 1010.0
20260507101802 57 32 7.0 9.0 0.01 0.09 0.02 82 1010.1
20260507101303 57 32 7.0 9.0 0.01 0.09 0.02 82 1009.9
20260507100801 57 14 6.0 12.0 0.01 0.09 0.02 82 1010.1
20260507100301 57 20 6.0 14.0 0.02 0.09 0.02 82 1010.4
20260507095802 57 45 6.0 14.0 0.02 0.07 0.02 82 1010.4
20260507095305 57 18 8.0 15.0 0.02 0.07 0.02 82 1010.4
20260507094803 58 16 15.0 15.0 0.02 0.07 0.02 82 1010.2
20260507094524 58 4 4.0 6.0 0.02 0.07 0.01 82 1010.1
20260507094028 58 16 5.0 9.0 0.01 0.07 0.01 82 1010.6
20260507093304 58 16 5.0 9.0 0.01 0.07 0.01 82 1010.4
20260507092759 58 0 6.0 9.0 0.01 0.07 0.01 82 1010.2
20260507092301 58 0 6.0 12.0 0.01 0.07 0.01 82 1010.4
20260507091800 58 32 6.0 13.0 0.01 0.07 0.01 82 1010.4
20260507091300 58 3 8.0 14.0 0.01 0.07 0.01 82 1010.1
20260507091032 59 39 7.0 14.0 0.01 0.07 0.01 81 1010.0
20260507090312 59 27 7.0 13.0 0.00 0.07 0.00 81 1010.0
20260507085759 59 3 7.0 13.0 0.00 0.07 0.00 80 1010.2
20260507085300 60 25 6.0 16.0 0.00 0.07 0.00 80 1010.1
20260507084758 60 21 8.0 16.0 0.00 0.07 0.00 79 1010.1
20260507084300 60 353 5.0 13.0 0.00 0.07 0.00 79 1009.8
20260507084031 61 302 7.0 17.0 0.00 0.07 0.00 78 1009.7
20260507083300 62 355 5.0 17.0 0.00 0.07 0.00 78 1009.6
20260507082807 62 21 7.0 15.0 0.00 0.07 0.00 78 1009.4
20260507081759 65 23 10.0 16.0 0.00 0.07 0.00 77 1009.5
20260507081301 68 353 7.0 11.0 0.00 0.07 0.00 80 1009.5
20260507080758 68 307 3.0 9.0 0.00 0.07 0.00 80 1009.3
20260507080301 68 18 3.0 11.0 0.00 0.07 0.00 79 1009.0
20260507075758 68 316 6.0 11.0 0.00 0.07 0.00 79 1008.7
20260507075300 69 17 2.0 6.0 0.00 0.07 0.00 79 1008.5
20260507075034 69 334 3.0 5.0 0.00 0.07 0.00 78 1008.6
20260507074251 69 3 3.0 7.0 0.00 0.07 0.00 78 1008.7
20260507073746 69 313 4.0 7.0 0.00 0.07 0.00 78 1008.8
20260507073518 69 313 4.0 6.0 0.00 0.07 0.00 78 1008.8
20260507072736 69 257 1.0 5.0 0.00 0.07 0.00 78 1008.6
20260507072231 69 262 4.0 7.0 0.00 0.07 0.00 77 1008.6
20260507071731 69 227 4.0 11.0 0.00 0.07 0.00 77 1008.6
20260507071230 69 244 6.0 13.0 0.00 0.07 0.00 77 1008.8
20260507071008 69 269 6.0 13.0 0.00 0.07 0.00 77 1008.8
20260507070231 69 257 6.0 12.0 0.00 0.07 0.00 76 1008.7
20260507065731 69 216 5.0 12.0 0.00 0.07 0.00 76 1008.4
20260507065231 69 231 7.0 12.0 0.00 0.07 0.00 75 1008.4
20260507065003 70 240 6.0 12.0 0.00 0.07 0.00 75 1008.5
20260507064229 70 230 4.0 11.0 0.00 0.07 0.00 75 1008.5
20260507064005 70 234 7.0 10.0 0.00 0.07 0.00 75 1008.3
20260507063457 70 223 5.0 9.0 0.00 0.07 0.00 75 1008.2
20260507062707 70 193 4.0 9.0 0.00 0.07 0.00 75 1008.1
20260507062203 70 214 6.0 12.0 0.00 0.07 0.00 76 1008.0
20260507061702 70 214 6.0 12.0 0.00 0.07 0.00 76 1008.1
20260507061435 70 202 5.0 10.0 0.00 0.07 0.00 75 1008.0
20260507060703 70 202 5.0 10.0 0.00 0.07 0.00 75 1008.0
20260507060202 70 189 5.0 12.0 0.00 0.07 0.00 75 1008.0
20260507055701 70 179 4.0 12.0 0.00 0.07 0.00 75 1008.0
20260507055201 70 214 5.0 13.0 0.00 0.07 0.00 75 1008.2
20260507054702 70 213 9.0 13.0 0.00 0.07 0.00 75 1008.4
20260507054434 70 180 6.0 11.0 0.00 0.07 0.00 75 1008.3
20260507053702 70 221 7.0 13.0 0.00 0.07 0.00 75 1008.2
20260507053436 70 213 9.0 13.0 0.00 0.07 0.00 75 1008.2
20260507052701 71 214 6.0 12.0 0.00 0.07 0.00 75 1008.3
20260507052202 70 220 6.0 12.0 0.00 0.07 0.00 75 1008.5
20260507051702 71 206 7.0 13.0 0.00 0.07 0.00 75 1008.7
20260507051203 71 252 7.0 13.0 0.00 0.07 0.00 75 1008.7
20260507050922 71 228 8.0 13.0 0.00 0.07 0.00 75 1009.0
20260507050143 70 220 9.0 13.0 0.00 0.07 0.00 75 1009.2
20260507045645 70 227 6.0 12.0 0.00 0.07 0.00 75 1009.3
20260507045143 70 237 7.0 14.0 0.00 0.07 0.00 75 1009.3
20260507044645 70 224 6.0 14.0 0.00 0.07 0.00 75 1009.3
20260507044143 70 220 7.0 10.0 0.00 0.07 0.00 75 1009.3
20260507043920 70 228 8.0 11.0 0.00 0.07 0.00 75 1009.4
20260507043142 70 172 5.0 12.0 0.00 0.07 0.00 75 1009.5
20260507042645 70 207 7.0 12.0 0.00 0.07 0.00 75 1009.6
20260507042144 70 200 6.0 12.0 0.00 0.07 0.00 75 1009.7
20260507041923 70 195 9.0 13.0 0.00 0.07 0.00 76 1009.4
20260507041142 70 199 7.0 13.0 0.00 0.07 0.00 76 1009.3
20260507040639 70 193 5.0 9.0 0.00 0.07 0.00 76 1009.3
20260507040131 70 228 4.0 9.0 0.00 0.07 0.00 76 1009.3
20260507035632 69 231 4.0 10.0 0.00 0.07 0.07 76 1009.4
20260507035131 69 195 4.0 10.0 0.00 0.07 0.07 76 1009.5
20260507034631 69 200 5.0 9.0 0.00 0.07 0.07 77 1009.6
20260507034409 69 228 4.0 12.0 0.00 0.07 0.07 77 1009.5
20260507033629 69 206 5.0 12.0 0.00 0.07 0.07 77 1009.5
20260507033131 69 212 5.0 12.0 0.00 0.07 0.07 77 1009.3
20260507032630 69 195 7.0 12.0 0.00 0.07 0.07 77 1009.1
20260507032406 69 190 6.0 12.0 0.00 0.07 0.07 77 1008.9
20260507031629 69 210 5.0 9.0 0.00 0.07 0.07 77 1008.9
20260507031131 69 213 6.0 9.0 0.00 0.07 0.07 77 1009.0
20260507030903 69 223 5.0 10.0 0.00 0.07 0.07 77 1009.0
20260507030130 69 210 4.0 10.0 0.00 0.07 0.07 77 1008.9
20260507025631 69 217 5.0 11.0 0.00 0.07 0.07 77 1008.9
20260507025129 69 185 6.0 11.0 0.00 0.07 0.07 77 1008.9
20260507024632 69 178 6.0 11.0 0.00 0.07 0.07 77 1008.8
20260507024124 69 195 5.0 10.0 0.00 0.07 0.07 77 1009.0
20260507023847 69 207 5.0 10.0 0.00 0.07 0.07 77 1009.0
20260507023113 69 214 5.0 7.0 0.00 0.07 0.07 77 1009.0
20260507022603 69 185 4.0 9.0 0.00 0.07 0.07 77 1009.3
20260507022103 69 199 5.0 10.0 0.00 0.07 0.07 77 1009.2
20260507021601 69 192 6.0 10.0 0.00 0.07 0.07 77 1009.2
20260507021103 69 169 5.0 11.0 0.00 0.07 0.07 77 1009.4
20260507020826 69 145 6.0 11.0 0.00 0.07 0.07 77 1009.5
20260507020323 69 193 4.0 7.0 0.00 0.07 0.07 76 1009.5
20260507015551 69 203 5.0 7.0 0.00 0.07 0.07 76 1009.5
20260507015046 69 210 6.0 7.0 0.00 0.07 0.07 76 1009.5
20260507014543 69 200 4.0 7.0 0.00 0.07 0.07 76 1009.6
20260507014041 69 204 4.0 6.0 0.00 0.07 0.07 76 1009.4
20260507013805 69 206 3.0 5.0 0.00 0.07 0.07 76 1009.5
20260507013030 69 206 3.0 5.0 0.00 0.07 0.07 76 1009.4
20260507012758 69 182 4.0 5.0 0.00 0.07 0.07 75 1009.3
20260507012030 69 180 4.0 6.0 0.00 0.07 0.07 75 1009.3
20260507011805 69 171 4.0 6.0 0.00 0.07 0.07 75 1009.3
20260507011029 70 190 4.0 6.0 0.00 0.07 0.07 75 1009.2
20260507010529 70 192 4.0 6.0 0.00 0.07 0.07 74 1009.3
20260507010030 70 199 3.0 4.0 0.00 0.07 0.07 74 1009.3
20260507005530 70 199 2.0 5.0 0.00 0.07 0.07 74 1009.1
20260507005030 70 210 3.0 7.0 0.00 0.07 0.07 73 1009.2
20260507004530 70 212 5.0 9.0 0.00 0.07 0.07 73 1009.4
20260507004030 70 178 4.0 11.0 0.00 0.07 0.07 73 1009.4
20260507003529 70 216 6.0 11.0 0.00 0.07 0.07 73 1009.5
20260507003303 0 192 3.0 3.0 0.00 0.07 0.07 1009.4
20260507002530 0 0.0 0.0 0.00 0.07 0.07 1009.4
20260507002028 71 210 5.0 7.0 0.00 0.07 0.07 72 1009.4
20260507001004 71 193 4.0 11.0 0.00 0.07 0.07 71 1009.6
20260507000749 71 190 6.0 11.0 0.00 0.07 0.07 71 1009.5
20260507000002 71 212 6.0 11.0 0.00 0.07 0.07 71 1009.4
20260506235737 71 207 6.0 17.0 0.00 0.07 0.07 71 1009.3
20260506235236 71 209 5.0 17.0 0.00 0.07 0.07 70 1009.2
20260506234502 72 219 4.0 13.0 0.00 0.07 0.07 70 1009.1
20260506234002 72 212 4.0 13.0 0.00 0.07 0.07 70 1009.0
20260506233502 72 257 5.0 12.0 0.00 0.07 0.07 69 1009.0
20260506233002 72 224 6.0 10.0 0.00 0.07 0.07 69 1008.9
20260506232501 72 221 7.0 10.0 0.00 0.07 0.07 69 1009.1
20260506232003 72 188 7.0 11.0 0.00 0.07 0.07 68 1009.0
20260506231502 73 176 8.0 12.0 0.00 0.07 0.07 68 1009.1
20260506231000 73 196 6.0 12.0 0.00 0.07 0.07 68 1008.9
20260506230502 72 192 7.0 12.0 0.00 0.07 0.07 68 1009.1
20260506230002 72 203 6.0 11.0 0.00 0.07 0.07 68 1009.0
20260506225742 72 221 4.0 13.0 0.00 0.07 0.07 69 1009.1
20260506225002 72 219 8.0 13.0 0.00 0.07 0.07 68 1009.0
20260506224503 72 203 5.0 13.0 0.00 0.07 0.07 68 1009.0
20260506224003 72 221 4.0 17.0 0.00 0.07 0.07 68 1009.2
20260506223502 72 220 7.0 17.0 0.00 0.07 0.07 68 1009.0
20260506223003 72 203 6.0 12.0 0.00 0.07 0.07 68 1009.0
20260506222502 72 223 5.0 11.0 0.00 0.07 0.07 67 1009.0
20260506222001 72 233 9.0 11.0 0.00 0.07 0.07 67 1009.1
20260506221502 72 183 6.0 14.0 0.00 0.07 0.07 67 1009.0
20260506221002 72 200 9.0 14.0 0.00 0.07 0.07 67 1009.0
20260506220440 72 216 9.0 12.0 0.00 0.07 0.07 67 1008.9
20260506215930 72 186 5.0 13.0 0.00 0.07 0.07 67 1009.0
20260506215705 72 216 7.0 15.0 0.00 0.07 0.07 66 1009.0
20260506214937 72 223 8.0 16.0 0.00 0.07 0.07 66 1009.0
20260506214431 72 204 9.0 16.0 0.00 0.07 0.07 66 1009.0
20260506214203 72 188 10.0 16.0 0.00 0.07 0.07 67 1009.1
20260506213431 72 217 9.0 20.0 0.00 0.07 0.07 67 1009.2
20260506212921 72 254 12.0 20.0 0.00 0.07 0.07 67 1009.3
20260506212653 72 224 8.0 15.0 0.00 0.07 0.07 67 1009.4
20260506211914 72 230 6.0 15.0 0.00 0.07 0.07 68 1009.3
20260506211648 72 213 8.0 15.0 0.00 0.07 0.07 68 1009.2
20260506210914 72 276 9.0 15.0 0.00 0.07 0.07 69 1009.1
20260506210644 72 227 5.0 12.0 0.00 0.07 0.07 70 1009.1
20260506205909 72 251 6.0 16.0 0.00 0.07 0.07 70 1009.1
20260506204902 0 0.0 0.0 0.00 0.07 0.07 1009.3
20260506204401 0 0.0 0.0 0.00 0.07 0.07 1009.2
20260506203903 0 0.0 0.0 0.00 0.07 0.07 1009.2
20260506203354 71 216 5.0 5.0 0.00 0.07 0.07 72 1009.2
20260506202840 71 216 5.0 11.0 0.00 0.07 0.07 72 1009.0
20260506202339 71 199 4.0 11.0 0.00 0.07 0.07 73 1009.1
20260506201903 70 226 3.0 11.0 0.00 0.07 0.07 73 1009.3
20260506200831 70 221 7.0 11.0 0.00 0.07 0.07 73 1009.0
20260506200603 70 203 6.0 10.0 0.00 0.07 0.07 73 1009.2
20260506195826 69 173 3.0 11.0 0.00 0.07 0.07 74 1008.7
20260506195324 69 173 5.0 11.0 0.00 0.07 0.07 74 1008.7
20260506194826 69 204 6.0 9.0 0.00 0.07 0.07 74 1008.5
20260506194324 69 179 5.0 12.0 0.00 0.07 0.07 75 1008.5
20260506193826 69 176 6.0 12.0 0.00 0.07 0.07 75 1008.6
20260506193324 68 173 5.0 12.0 0.01 0.07 0.07 76 1008.6
20260506192828 68 199 5.0 12.0 0.01 0.07 0.07 76 1008.9
20260506192324 68 172 7.0 11.0 0.01 0.07 0.07 77 1009.0
20260506191826 67 176 2.0 10.0 0.01 0.07 0.07 78 1009.3
20260506191557 67 202 6.0 13.0 0.01 0.07 0.07 78 1009.3
20260506191101 67 195 6.0 13.0 0.01 0.07 0.07 78 1009.5
20260506190324 67 217 8.0 12.0 0.01 0.07 0.07 79 1009.6
20260506185826 66 224 6.0 13.0 0.01 0.06 0.07 79 1009.5
20260506185325 66 200 5.0 15.0 0.01 0.06 0.07 79 1009.6
20260506184826 66 190 10.0 15.0 0.01 0.06 0.07 80 1009.5
20260506184325 66 190 7.0 17.0 0.01 0.06 0.07 79 1009.8
20260506184100 66 197 9.0 17.0 0.01 0.06 0.07 79 1009.6
20260506183325 66 175 8.0 16.0 0.00 0.06 0.06 79 1009.9
20260506182826 66 219 8.0 15.0 0.00 0.06 0.06 78 1010.1
20260506182602 66 199 6.0 15.0 0.00 0.06 0.06 78 1010.2
20260506181825 66 203 9.0 15.0 0.00 0.06 0.06 78 1010.5
20260506181325 66 204 5.0 15.0 0.00 0.06 0.06 78 1010.6
20260506180826 66 214 9.0 15.0 0.00 0.06 0.06 78 1010.6
20260506180325 67 219 6.0 15.0 0.00 0.06 0.06 77 1010.6
20260506175826 67 210 9.0 15.0 0.00 0.06 0.06 77 1010.8
20260506175602 67 217 7.0 17.0 0.00 0.06 0.06 77 1010.8
20260506175107 67 210 7.0 17.0 0.00 0.06 0.06 77 1010.7
20260506174325 67 186 10.0 18.0 0.00 0.06 0.06 76 1010.7
20260506173827 67 186 9.0 18.0 0.00 0.06 0.06 76 1010.7
20260506173325 67 223 9.0 14.0 0.00 0.06 0.06 76 1010.7
20260506172827 67 210 9.0 14.0 0.00 0.06 0.06 76 1010.7
20260506172325 66 166 10.0 15.0 0.00 0.06 0.06 76 1010.6
20260506171826 66 214 9.0 15.0 0.00 0.06 0.06 76 1010.6
20260506171325 66 224 7.0 16.0 0.00 0.06 0.06 76 1010.6
20260506170825 66 226 9.0 16.0 0.00 0.06 0.06 76 1010.9
20260506170324 66 199 11.0 15.0 0.00 0.06 0.06 77 1010.9
20260506170111 66 217 6.0 13.0 0.00 0.06 0.06 77 1011.2
20260506165324 66 221 8.0 13.0 0.00 0.06 0.06 77 1011.1
20260506164825 66 188 6.0 11.0 0.00 0.06 0.06 77 1010.8
20260506164322 66 200 5.0 14.0 0.00 0.06 0.06 77 1011.0
20260506163823 65 175 7.0 14.0 0.00 0.06 0.06 77 1011.1
20260506163320 65 217 6.0 16.0 0.00 0.06 0.06 77 1011.1
20260506162820 65 173 8.0 16.0 0.00 0.06 0.06 78 1010.9
20260506162313 65 176 8.0 14.0 0.00 0.06 0.06 78 1010.9
20260506161804 65 195 9.0 14.0 0.00 0.06 0.06 79 1010.9
20260506161302 64 188 6.0 17.0 0.00 0.06 0.06 79 1010.9
20260506160804 64 180 9.0 17.0 0.00 0.06 0.06 79 1010.9
20260506160301 64 166 6.0 13.0 0.00 0.06 0.06 80 1010.9
20260506160055 64 203 5.0 13.0 0.00 0.06 0.06 80 1011.1
20260506155301 64 188 6.0 13.0 0.00 0.06 0.06 80 1011.1
20260506154801 64 185 4.0 11.0 0.01 0.06 0.06 80 1011.2
20260506154302 64 173 7.0 11.0 0.02 0.06 0.06 80 1011.4
20260506153802 64 175 8.0 11.0 0.03 0.06 0.06 80 1011.5
20260506153303 64 199 6.0 12.0 0.03 0.06 0.06 81 1011.6
20260506152802 64 173 8.0 12.0 0.04 0.06 0.06 81 1011.8
20260506152305 64 199 4.0 10.0 0.05 0.06 0.06 81 1011.7